Hauptseite
METAR-TAF:

METAR-TAF

Flughäfen :

Fliegerhorst Faßberg

Faßberg, Deutschland

Breite: 52-55N, Länge: 010-11E, Höhe: 75 m

Beobachtung

Neuester Wetterbericht von vor 53 Minuten, um 18:20 UTC
Wind 9 kt aus Ost/Nordost
Temperatur 5°C
Luftfeuchtigkeit 87%
Luftdruck 1029 hPa
Sichtweite: 8000 m
Aufgelockert bewölkt in der Höhe von 1000 ft
Durchbrochene Bewölkung in der Höhe von 4000 ft

METAR: ETHS 181820Z 07009KT 8000 SCT010 BKN040 05/03 Q1029 BLU

Zeit: 20:13 (19:13 UTC)


TAF: fehlend

Wetterbeobachtungen und Prognosen von mehr als 4000 Flughäfen (METAR und TAF Bericht).

Die verfügbaren Stationen werden durch gelbe und rote Markierungen auf der Karte dargestellt.

Führen Sie die Maus auf sie, um den Namen der Station zu sehen.

Darauf klicken, um die Beobachtung von Wetterbeobachtungen und Prognosen zu sehen.

Um die Karte zu ändern : klicken Sie auf den grünen Tasten mit einem schwarzen Kreuz Zum Vergrößern, auf den grünen Button mit einem Gedankenstrich zu verkleinern, oder auf die grünen Pfeile für benachbarte Karten.


METAR-TAF: